Location: Easter Hill Village
(37.9235°N, 122.3444°W)
Time: 07:34:38
(UTC+00:00)

Unknown - Pass Details

Date: 16 September 2019
Orbit: 549 x 550 km, 53.0° (Epoch: 15 October)

Event Time Altitude Azimuth Distance (km) Brightness Sun altitude
Exits shadow 12:31:06 29° 282° (WNW) 1,013 4.5 -16.5°
Maximum altitude 12:32:29 39° 325° (NW) 836 4.4 -16.2°
Drops below altitude 10° 12:36:23 10° 35° (NE) 1,826 7.0 -15.5°
Sets 12:38:44 0° 44° (NE) 2,722 8.2 -15.0°
